This demonstration page uses our WeatherBlox Daily Observations layout. Learn more.

Left ArrowRight Arrow

31.84235, -102.49876

Hourly Observations for October 7, 2022

Temp ( °F °C ) Dew Point ( °F °C ) Humidity (%) Winds ( mph kmh ) Pressure ( in mb ) Visibility ( mi km ) Precip ( " mm )
12:53 am 00:53 Cloudy 70 21.1 51 10.6 51 51 NNE 6 9 30.14 1021 10 16 0.00 0.00
1:53 am 01:53 Cloudy 69 20.6 52 11.1 54 54 NE 8 13 30.13 1020 10 16 0.00 0.00
2:53 am 02:53 Mostly Cloudy 67 19.4 54 12.2 63 63 NNE 3 6 30.13 1020 10 16 0.00 0.00
3:53 am 03:53 Cloudy 66 18.9 54 12.2 65 65 WNW 3 6 30.15 1021 10 16 0.00 0.00
4:53 am 04:53 Partly Cloudy 64 17.8 54 12.2 70 70 WNW 3 6 30.14 1021 10 16 0.00 0.00
5:53 am 05:53 Clear 62 16.7 53 11.7 72 72 Calm 30.14 1021 10 16 0.00 0.00
6:53 am 06:53 Clear 61 16.1 53 11.7 75 75 N 6 9 30.16 1021 10 16 0.00 0.00
7:53 am 07:53 Sunny 64 17.8 56 13.3 75 75 NNE 7 11 30.18 1022 10 16 0.00 0.00
8:53 am 08:53 Mostly Sunny 65 18.3 56 13.3 73 73 NNE 8 13 30.20 1023 10 16 0.00 0.00
9:53 am 09:53 Sunny 70 21.1 54 12.2 57 57 NNE 6 9 30.21 1023 10 16 0.00 0.00
10:53 am 10:53 Sunny 73 22.8 53 11.7 50 50 Calm 30.21 1023 10 16 0.00 0.00
11:53 am 11:53 Sunny 76 24.4 52 11.1 43 43 VRB 3 6 30.20 1023 10 16 0.00 0.00
12:53 pm 12:53 Mostly Sunny 78 25.6 51 10.6 39 39 Calm 30.19 1022 10 16 0.00 0.00
1:53 pm 13:53 Cloudy 78 25.6 51 10.6 39 39 SSE 6 9 30.16 1021 10 16 0.00 0.00
2:10 pm 14:10 Cloudy with Nearby Thunderstorms 78 25.6 52 11.1 40 40 NE 6 9 30.10 1019 10 16 0.00 0.00
2:29 pm 14:29 Mostly Cloudy 79 26.1 52 11.1 39 39 ESE 5 7 30.08 1019 10 16 0.00 0.00
2:53 pm 14:53 Mostly Cloudy with Nearby Thunderstorms 78 25.6 50 10 37 37 VRB 7 11 30.13 1020 10 16 0.00 0.00
3:16 pm 15:16 Mostly Sunny 78 25.6 50 10 37 37 ESE 5 7 30.06 1018 10 16 0.00 0.00
3:42 pm 15:42 Cloudy with Rain 73 22.8 54 12.2 51 51 SE 6 9 30.09 1019 2 3 0.09 2.29
3:48 pm 15:48 Cloudy with Thunderstorms 73 23 55 13 53 53 SE 6 9 30.09 1019 4 6 0.10 2.54
3:53 pm 15:53 Cloudy with Thunderstorms 71 21.7 58 14.4 63 63 ENE 7 11 30.13 1020 5 8 0.11 2.79
4:09 pm 16:09 Mostly Cloudy with Nearby Thunderstorms 73 22.8 57 13.9 57 57 undefined N/A 30.09 1019 10 16 0.01 0.13
4:22 pm 16:22 Mostly Cloudy 74 23.3 54 12.2 50 50 SSW 10 17 30.08 1018 10 16 0.01 0.13
4:53 pm 16:53 Mostly Sunny 75 23.9 50 10 41 41 SSW 7 11 30.12 1020 10 16 0.01 0.13
5:53 pm 17:53 Cloudy 76 24.4 51 10.6 42 42 Calm 30.12 1020 10 16 0.00 0.00
6:53 pm 18:53 Cloudy 70 21.1 56 13.3 61 61 NE 13 20 30.15 1021 10 16 0.00 0.00
7:53 pm 19:53 Cloudy 67 19.4 57 13.9 71 71 NNE 13 20 30.19 1022 10 16 0.01 0.25
8:53 pm 20:53 Cloudy with Rain 62 16.7 58 14.4 86 86 ENE 14 22 30.24 1024 4 6 0.02 0.51
9:53 pm 21:53 Cloudy with Light Rain 62 16.7 60 15.6 93 93 ENE 17 28 30.24 1024 8 13 0.01 0.25
10:53 pm 22:53 Cloudy with Light Rain 61 16.1 59 15 93 93 ENE 16 26 30.26 1025 6 10 0.09 2.29
11:53 pm 23:53 Cloudy with Light Rain 60 15.6 59 15 96 96 ENE 16 26 30.26 1025 7 11 0.03 0.76

Powered by AerisWeather